Location: Allendale
(34.4298°N, 82.7582°W)
Time: 10:58:02
(UTC+00:00)

Envisat - Visible Passes

Search period start: 20 May 2022 00:00
Search period end: 30 May 2022 00:00
Orbit: 764 x 765 km, 98.2° (Epoch: 19 May)

Date Brightness Start Highest point End Pass type
(mag) Time Alt. Az. Time Alt. Az. Time Alt. Az.
21 May 4.1 09:40:13 10° NNE 09:45:06 46° E 09:49:57 10° S visible
22 May 5.5 09:04:22 10° NE 09:07:59 19° E 09:11:36 10° SE visible
24 May 4.6 09:28:40 10° NNE 09:33:19 35° E 09:37:56 10° SSE visible
25 May 5.6 08:53:21 10° ENE 08:56:08 15° E 08:58:55 10° SE visible
27 May 5.0 09:17:13 10° NE 09:21:30 27° E 09:25:45 10° SSE visible
28 May 5.9 08:43:03 10° ENE 08:44:16 11° E 08:45:30 10° ESE visible
29 May 4.0 09:41:50 10° NNE 09:46:46 50° E 09:51:40 10° S visible
